Regional Weather Roundup
Issued by NWS Newport/Morehead, NC

Current Version | Previous Version | Graphics & Text | Print | Product List | Glossary Off
Versions: 1 2 3 4 5 6 7 8 9 10 11 12 13 14 15 16 17 18 19 20 21 22 23 24 25 26 27 28 29 30 31 32 33 34 35 36 37 38 39 40 41 42 43 44 45 46 47 48 49 50

000
ASUS42 KMHX 240725
RWRMHX
WEATHER ROUNDUP FOR EASTERN NORTH CAROLINA
NATIONAL WEATHER SERVICE NEWPORT/MOREHEAD CITY NC
300 AM EDT SUN JUL 24 2016

NOTE: "FAIR" INDICATES FEW OR NO CLOUDS BELOW 12,000 FEET
WITH NO SIGNIFICANT WEATHER AND/OR OBSTRUCTIONS TO VISIBILITY

NCZ015>017-031-032-045>047-102-103-240800-
NORTH COAST

CITY           SKY/WX    TMP DP  RH WIND       PRES   REMARKS
EDENTON        PTCLDY    80  76  85 SW5       30.00S
ELIZABETH CITY CLEAR     78  74  87 SW8       29.99S
KITTY HAWK     SUNNY     80  74  83 SW7       29.99S
MANTEO           N/A     79  77  94 W9        30.00S

$$

NCZ045>047-081-094-103-104-240800-
CENTRAL COAST

CITY           SKY/WX    TMP DP  RH WIND       PRES   REMARKS
FRISCO         PTCLDY    81  75  82 SW8       30.01S

$$

NCZ095-097-098-100-101-240800-
SOUTHERN COAST

CITY           SKY/WX    TMP DP  RH WIND       PRES   REMARKS
BEAUFORT       PTCLDY    82  74  76 SW9       30.02S
CEDAR ISLAND   NOT AVBL
JACKSONVILLE   CLEAR     76  73  91 CALM      30.01S
PINEY ISLAND   NOT AVBL
WILMINGTON     MOCLDY    77  75  93 S3        30.02R


$$

NCZ011>013-027>030-043-044-078>080-089-090>093-098-240800-
COASTAL PLAIN

CITY           SKY/WX    TMP DP  RH WIND       PRES   REMARKS
AHOSKIE        CLEAR     75  74  96 CALM      29.99F
CLINTON        CLEAR     73  72  98 CALM      30.02R
ELIZABETHTOWN  CLEAR     77  76  97 CALM      30.01S
GOLDSBORO      CLEAR     75  75 100 S3        29.99S
GREENVILLE     CLEAR     77  73  88 SW6       30.03R
HAVELOCK       CLEAR     77  74  90 CALM      30.03R
KENANSVILLE    NOT AVBL
KINSTON        CLEAR     73  71  93 S3        30.02S
NEW BERN       CLEAR     76  73  91 CALM      30.03R
RICHLANDS      CLEAR     73  72  96 CALM      30.02S
ROCKY MOUNT    CLEAR     75  73  93 S3        30.00S
WASHINGTON     CLEAR     76  72  88 S5        30.01S
WHITEVILLE     CLEAR     76  74  93 CALM      30.01S

$$

AMZ130-135-150-152-154-156-158-170-250-252-270-ANZ085-086-088-633-658-670-240800-
MARINE OBSERVATIONS

STATION/POSITION TIME  TEMP    WIND        PRES    WAVE   SWELL
                       AIR SEA DIR/SP/G            HT/PER HT/PER
                 (UTC) (F)     (DEG/KT/KT) (MB)    (FT/S) (FT/S)
CHESAPEAKE LIGHT NOT AVBL
64 E VA BEACH    0650   81 80  230/ 14/ 17 1014.6    4/ 4   2/ 8
DUCK             0700   81 60  230/ 12/ 15 1014.9
2 E DUCK         0611      70                N/A     1/ 9
OREGON INLET     0700   83 85  230/ 15/ 17 1015.7
13E OREGON INLT  0700      83                N/A     2/ 8   2/ 8
HATTERAS CG      0700   81 83  220/  6/  9 1015.9
DIAMOND BUOY     0650   84 85  230/ 14/ 16 1016.5    3/ 4   2/ 8
CAPE LOOKOUT     0700   82     230/  6/  8 1016.4
BEAUFORT LAB     0700   83 83  220/  5/  8 1016.0
30 SE NEW RVR IN 0708   84 85  220/ 12/ 16 1016.5
30 SE NEW RVR IN 0625      85                N/A     2/ 8
27 SE WRIGHTSVLE 0708   84 85  230/ 12/ 14 1016.8
5 SE WRIGHTSVLE  0708   83 83  240/  8/ 10 1017.3
225 S CAPE HAT   0650   82 84  240/  4/  4 1016.9    2/ 8   2/ 8
41 SE CHARLESTON 0650   85 86  210/ 14/ 16 1015.9    3/ 9   2/ 9

$$




USA.gov is the U.S. government's official web portal to all federal, state and local government web resources and services.